contact:dominique.lefevre@mio.osupytheas.fr, maurice.libes@osupytheas.fr, didier.mallarino@osupytheas.fr
Project:EMSO http://www.emso-fr.org/EMSO-France
Depth: 2436.0 m
Title:EMSO Ligure Ouest : Data MII capteur AQUADOPP
Date,Latitude,Longitude,X_East,Y_North,Z_Up,Amplitude_X,Amplitude_Y,Amplitude_Z,Batterie,SoundSpeed,Heading,Pitch,Roll,Pressure,TIS,Speed,Direction
, degrees North, degrees East, m.s-1, m.s-1,m.s-1, 1, 1, 1, Volt, m.s-1, degree, degree, degree, dbar, degree_C, m.s-1, degree
2021-08-08T00:04:03,42.805,6.029,0.033,-0.01,-0.044,102.0,102.0,101.0,13.3,1505.2,325.3,-0.8,1.8,2470.623,13.28,0.034,106.9
2021-08-08T00:07:03,42.805,6.029,0.047,-0.02,-0.012,102.0,103.0,101.0,13.4,1505.2,329.8,-0.7,1.8,2470.621,13.28,0.051,113.0
2021-08-08T00:10:03,42.805,6.029,0.038,-0.024,-0.011,103.0,102.0,101.0,13.4,1505.2,328.9,-0.8,1.8,2470.611,13.28,0.044,122.3
2021-08-08T00:13:03,42.805,6.029,0.066,-0.034,0.014,102.0,102.0,101.0,13.4,1505.2,325.0,-0.8,1.8,2470.596,13.28,0.074,117.3
2021-08-08T00:16:03,42.805,6.029,0.026,-0.037,0.009,103.0,103.0,101.0,13.4,1505.2,329.0,-0.8,1.8,2470.598,13.28,0.045,144.9
2021-08-08T00:19:03,42.805,6.029,0.038,-0.044,-0.038,102.0,102.0,101.0,13.3,1505.2,327.3,-0.7,1.9,2470.586,13.28,0.058,139.2
2021-08-08T00:22:03,42.805,6.029,0.052,-0.013,0.008,102.0,102.0,101.0,13.4,1505.2,330.2,-0.7,1.8,2470.591,13.28,0.053,104.0
2021-08-08T00:25:03,42.805,6.029,0.027,-0.039,-0.005,103.0,102.0,101.0,13.3,1505.2,326.3,-0.7,1.8,2470.596,13.28,0.047,145.3
2021-08-08T00:28:03,42.805,6.029,0.018,-0.012,-0.043,102.0,104.0,101.0,13.4,1505.2,327.7,-0.8,1.8,2470.572,13.28,0.021,123.7
2021-08-08T00:31:03,42.805,6.029,0.051,-0.024,0.002,102.0,102.0,101.0,13.4,1505.2,325.5,-0.8,1.8,2470.585,13.28,0.056,115.2
2021-08-08T00:34:03,42.805,6.029,0.032,-0.022,-0.026,103.0,102.0,100.0,13.4,1505.2,327.8,-0.7,1.9,2470.596,13.28,0.038,124.5
2021-08-08T00:37:03,42.805,6.029,0.033,-0.014,0.003,102.0,104.0,100.0,13.4,1505.2,325.1,-0.8,1.8,2470.607,13.28,0.035,113.0
2021-08-08T00:40:03,42.805,6.029,0.027,-0.016,0.011,103.0,104.0,101.0,13.4,1505.2,328.3,-0.8,1.9,2470.574,13.28,0.031,120.7
2021-08-08T00:43:03,42.805,6.029,0.036,-0.027,-0.021,101.0,103.0,101.0,13.3,1505.2,326.9,-0.8,1.8,2470.545,13.28,0.045,126.9
2021-08-08T00:46:03,42.805,6.029,0.05,-0.058,-0.029,102.0,102.0,101.0,13.4,1505.2,329.3,-0.7,1.9,2470.569,13.28,0.076,139.2
2021-08-08T00:49:03,42.805,6.029,0.025,-0.03,0.017,102.0,103.0,101.0,13.4,1505.2,330.1,-0.8,1.9,2470.593,13.28,0.039,140.2
2021-08-08T00:52:03,42.805,6.029,0.034,-0.03,-0.018,102.0,102.0,101.0,13.4,1505.2,329.9,-0.8,1.8,2470.581,13.28,0.045,131.4
2021-08-08T00:55:03,42.805,6.029,0.023,-0.023,-0.014,103.0,102.0,101.0,13.3,1505.2,326.9,-0.8,1.8,2470.551,13.28,0.032,135.0
2021-08-08T00:58:03,42.805,6.029,-0.007,-0.017,-0.011,102.0,102.0,100.0,13.4,1505.2,329.2,-0.8,1.8,2470.569,13.28,0.018,202.4
2021-08-08T01:04:03,42.805,6.029,0.082,-0.031,-0.02,105.0,104.0,103.0,13.3,1505.2,329.1,-0.8,1.8,2470.572,13.28,0.087,110.7
2021-08-08T01:07:03,42.805,6.029,0.031,-0.032,0.004,104.0,103.0,101.0,13.4,1505.2,326.0,-0.8,1.8,2470.584,13.28,0.044,135.9
2021-08-08T01:10:03,42.805,6.029,0.008,-0.032,-0.003,102.0,102.0,102.0,13.4,1505.2,325.8,-0.7,1.8,2470.566,13.28,0.032,166.0
2021-08-08T01:13:03,42.805,6.029,0.046,-0.034,0.015,103.0,102.0,101.0,13.4,1505.2,329.4,-0.8,1.9,2470.584,13.28,0.057,126.5
2021-08-08T01:16:03,42.805,6.029,0.045,-0.017,-0.022,102.0,102.0,101.0,13.4,1505.2,326.4,-0.7,1.8,2470.555,13.28,0.048,110.7
2021-08-08T01:19:03,42.805,6.029,0.054,-0.04,0.016,102.0,102.0,100.0,13.4,1505.2,330.3,-0.8,1.9,2470.59,13.28,0.067,126.5
2021-08-08T01:22:03,42.805,6.029,0.02,-0.011,0.001,104.0,101.0,101.0,13.4,1505.2,328.1,-0.7,1.8,2470.534,13.28,0.022,118.8
2021-08-08T01:25:03,42.805,6.029,0.037,-0.031,-0.026,103.0,103.0,102.0,13.4,1505.2,329.7,-0.8,1.9,2470.567,13.28,0.048,130.0
2021-08-08T01:28:03,42.805,6.029,0.057,-0.03,0.011,103.0,103.0,101.0,13.4,1505.2,329.4,-0.7,1.8,2470.536,13.28,0.064,117.8
2021-08-08T01:31:03,42.805,6.029,0.035,-0.025,0.009,103.0,102.0,101.0,13.4,1505.2,325.5,-0.8,1.8,2470.521,13.28,0.043,125.5
2021-08-08T01:34:03,42.805,6.029,0.043,-0.011,0.001,103.0,102.0,101.0,13.4,1505.2,328.8,-0.8,1.8,2470.55,13.28,0.044,104.3
2021-08-08T01:37:03,42.805,6.029,0.034,-0.038,-0.019,102.0,102.0,101.0,13.4,1505.2,329.6,-0.7,1.8,2470.543,13.28,0.05,138.2
2021-08-08T01:40:03,42.805,6.029,0.015,-0.035,-0.019,103.0,103.0,100.0,13.4,1505.2,325.0,-0.7,1.8,2470.58,13.28,0.038,156.8
2021-08-08T01:43:03,42.805,6.029,0.059,-0.03,0.017,102.0,102.0,100.0,13.4,1505.2,329.3,-0.7,1.8,2470.504,13.28,0.066,116.9
2021-08-08T01:46:03,42.805,6.029,0.009,-0.021,0.014,102.0,101.0,102.0,13.4,1505.2,325.0,-0.8,1.8,2470.547,13.28,0.022,156.8
2021-08-08T01:49:03,42.805,6.029,0.044,-0.03,-0.031,102.0,103.0,102.0,13.4,1505.2,327.5,-0.8,1.8,2470.537,13.28,0.053,124.3
2021-08-08T01:52:03,42.805,6.029,0.033,-0.044,-0.009,102.0,102.0,102.0,13.4,1505.2,329.2,-0.8,1.8,2470.529,13.28,0.055,143.1
2021-08-08T01:55:03,42.805,6.029,0.023,-0.038,-0.007,101.0,103.0,101.0,13.3,1505.2,329.3,-0.8,1.8,2470.536,13.28,0.044,148.8
2021-08-08T01:58:03,42.805,6.029,0.037,-0.027,-0.013,102.0,102.0,101.0,13.4,1505.2,329.1,-0.8,1.8,2470.511,13.28,0.045,126.1
2021-08-08T02:04:03,42.805,6.029,0.032,-0.015,-0.008,102.0,102.0,101.0,13.4,1505.2,329.3,-0.7,1.8,2470.584,13.28,0.035,115.1
2021-08-08T02:07:03,42.805,6.029,0.04,-0.024,0.004,102.0,103.0,101.0,13.3,1505.2,326.9,-0.8,1.8,2470.59,13.28,0.046,121.0
2021-08-08T02:10:03,42.805,6.029,0.029,-0.018,0.002,105.0,102.0,101.0,13.4,1505.2,327.3,-0.7,1.8,2470.599,13.28,0.034,121.8
2021-08-08T02:13:03,42.805,6.029,0.028,-0.026,-0.006,103.0,103.0,102.0,13.4,1505.2,328.3,-0.8,1.8,2470.525,13.28,0.038,132.9
2021-08-08T02:16:03,42.805,6.029,0.031,-0.039,0.01,102.0,104.0,100.0,13.4,1505.2,329.2,-0.8,1.8,2470.579,13.28,0.049,141.5
2021-08-08T02:19:03,42.805,6.029,0.046,-0.015,0.002,102.0,102.0,101.0,13.4,1505.2,326.9,-0.8,1.8,2470.557,13.28,0.048,108.1
2021-08-08T02:22:03,42.805,6.029,0.043,-0.033,-0.024,103.0,102.0,101.0,13.4,1505.2,326.9,-0.8,1.8,2470.569,13.28,0.054,127.5
2021-08-08T02:25:03,42.805,6.029,0.034,-0.028,-0.024,102.0,102.0,101.0,13.4,1505.2,326.4,-0.7,1.8,2470.552,13.28,0.044,129.5
2021-08-08T02:28:03,42.805,6.029,0.019,-0.035,0.006,103.0,102.0,101.0,13.4,1505.2,328.9,-0.7,1.9,2470.545,13.28,0.039,151.5
2021-08-08T02:31:03,42.805,6.029,0.026,-0.032,0.011,103.0,102.0,101.0,13.4,1505.2,327.1,-0.8,1.8,2470.528,13.28,0.041,140.9
2021-08-08T02:34:03,42.805,6.029,0.011,-0.016,0.006,102.0,102.0,101.0,13.4,1505.2,326.9,-0.8,1.9,2470.513,13.28,0.019,145.5
2021-08-08T02:37:03,42.805,6.029,0.043,-0.041,-0.026,104.0,103.0,101.0,13.4,1505.2,329.1,-0.8,1.8,2470.564,13.28,0.059,133.6
2021-08-08T02:40:03,42.805,6.029,0.02,-0.011,0.006,103.0,103.0,100.0,13.4,1505.2,329.6,-0.7,1.8,2470.555,13.28,0.022,118.8
2021-08-08T02:43:03,42.805,6.029,0.038,-0.025,-0.028,102.0,103.0,101.0,13.4,1505.2,331.0,-0.7,1.8,2470.575,13.28,0.045,123.3
2021-08-08T02:46:03,42.805,6.029,0.037,-0.023,-0.021,102.0,103.0,101.0,13.3,1505.2,329.7,-0.7,1.8,2470.554,13.28,0.043,121.9
2021-08-08T02:49:03,42.805,6.029,0.033,-0.016,0.0,103.0,103.0,101.0,13.3,1505.2,329.4,-0.8,1.8,2470.56,13.28,0.036,115.9
2021-08-08T02:52:03,42.805,6.029,0.025,-0.016,-0.027,103.0,102.0,101.0,13.4,1505.2,325.7,-0.8,1.8,2470.518,13.28,0.029,122.6
2021-08-08T02:55:03,42.805,6.029,0.036,-0.018,0.014,103.0,102.0,101.0,13.4,1505.2,327.4,-0.8,1.8,2470.559,13.28,0.04,116.6
2021-08-08T02:58:03,42.805,6.029,0.001,-0.025,-0.022,102.0,102.0,101.0,13.4,1505.2,328.6,-0.8,1.8,2470.55,13.28,0.025,177.7
2021-08-08T03:04:03,42.805,6.029,0.032,-0.012,0.029,102.0,103.0,100.0,13.4,1505.2,326.8,-0.7,1.8,2470.592,13.28,0.034,110.6
2021-08-08T03:07:03,42.805,6.029,0.041,-0.018,0.009,102.0,103.0,101.0,13.4,1505.2,326.1,-0.8,1.8,2470.615,13.28,0.044,113.7
2021-08-08T03:10:03,42.805,6.029,0.031,-0.043,-0.003,102.0,102.0,101.0,13.4,1505.2,327.1,-0.7,1.8,2470.593,13.28,0.053,144.2
2021-08-08T03:13:03,42.805,6.029,0.022,-0.034,0.007,102.0,103.0,101.0,13.4,1505.2,329.6,-0.8,1.9,2470.596,13.28,0.04,147.1
2021-08-08T03:16:03,42.805,6.029,0.019,-0.02,-0.011,103.0,102.0,101.0,13.3,1505.2,326.9,-0.8,1.8,2470.561,13.28,0.027,136.5
2021-08-08T03:19:03,42.805,6.029,0.036,-0.03,-0.023,104.0,103.0,101.0,13.3,1505.2,328.9,-0.7,1.9,2470.574,13.28,0.046,129.8
2021-08-08T03:22:03,42.805,6.029,0.011,-0.006,0.01,103.0,103.0,101.0,13.3,1505.2,330.7,-0.7,1.8,2470.561,13.28,0.012,118.6
2021-08-08T03:25:03,42.805,6.029,0.057,-0.028,-0.031,103.0,102.0,101.0,13.4,1505.2,325.3,-0.8,1.8,2470.597,13.28,0.063,116.2
2021-08-08T03:28:03,42.805,6.029,0.032,-0.021,-0.03,102.0,102.0,102.0,13.4,1505.2,325.0,-0.8,1.8,2470.569,13.28,0.038,123.3
2021-08-08T03:31:03,42.805,6.029,0.003,-0.022,-0.033,103.0,102.0,101.0,13.3,1505.2,325.1,-0.8,1.8,2470.572,13.28,0.022,172.2
2021-08-08T03:34:03,42.805,6.029,0.039,-0.027,-0.015,101.0,102.0,101.0,13.4,1505.2,326.7,-0.8,1.8,2470.559,13.28,0.047,124.7
2021-08-08T03:37:03,42.805,6.029,0.044,-0.014,-0.007,102.0,102.0,101.0,13.3,1505.2,328.1,-0.8,1.8,2470.556,13.28,0.046,107.6
2021-08-08T03:40:03,42.805,6.029,0.027,-0.033,0.002,102.0,102.0,100.0,13.4,1505.2,327.0,-0.7,1.8,2470.557,13.28,0.042,140.7
2021-08-08T03:43:03,42.805,6.029,0.032,-0.033,0.006,103.0,102.0,100.0,13.4,1505.2,326.3,-0.8,1.8,2470.588,13.28,0.045,135.9
2021-08-08T03:46:03,42.805,6.029,0.017,-0.027,-0.013,101.0,102.0,101.0,13.4,1505.2,330.8,-0.8,1.8,2470.563,13.28,0.031,147.8
2021-08-08T03:49:03,42.805,6.029,0.021,-0.055,-0.034,103.0,102.0,101.0,13.3,1505.2,330.4,-0.7,1.8,2470.58,13.28,0.058,159.1
2021-08-08T03:52:03,42.805,6.029,0.031,-0.021,-0.016,102.0,102.0,102.0,13.4,1505.2,327.3,-0.8,1.8,2470.568,13.28,0.037,124.1
2021-08-08T03:55:03,42.805,6.029,0.033,-0.033,0.011,103.0,102.0,101.0,13.3,1505.2,329.4,-0.8,1.8,2470.586,13.28,0.046,135.0
2021-08-08T03:58:03,42.805,6.029,0.03,-0.025,0.0,102.0,102.0,101.0,13.4,1505.2,329.9,-0.7,1.9,2470.551,13.28,0.039,129.8
2021-08-08T04:04:03,42.805,6.029,0.04,-0.03,-0.005,102.0,102.0,101.0,13.4,1505.2,329.1,-0.7,1.8,2470.624,13.28,0.05,126.9
2021-08-08T04:07:03,42.805,6.029,0.013,-0.035,0.004,104.0,100.0,101.0,13.4,1505.2,325.7,-0.7,1.8,2470.597,13.28,0.037,159.6
2021-08-08T04:10:03,42.805,6.029,0.045,-0.03,-0.006,102.0,101.0,101.0,13.4,1505.2,328.6,-0.8,1.8,2470.609,13.28,0.054,123.7
2021-08-08T04:13:03,42.805,6.029,0.02,-0.016,-0.015,102.0,102.0,101.0,13.4,1505.2,328.9,-0.8,1.8,2470.613,13.28,0.025,128.7
2021-08-08T04:16:03,42.805,6.029,0.022,-0.004,0.018,101.0,103.0,101.0,13.3,1505.2,328.3,-0.8,1.9,2470.632,13.28,0.022,100.3
2021-08-08T04:19:03,42.805,6.029,0.038,-0.014,-0.003,103.0,102.0,100.0,13.3,1505.2,328.7,-0.7,1.8,2470.611,13.28,0.04,110.2
2021-08-08T04:22:03,42.805,6.029,0.011,-0.025,-0.007,104.0,103.0,100.0,13.4,1505.2,325.2,-0.7,1.9,2470.597,13.28,0.027,156.3
2021-08-08T04:25:03,42.805,6.029,0.023,-0.047,-0.048,102.0,103.0,101.0,13.4,1505.2,329.9,-0.8,1.8,2470.6,13.28,0.052,153.9
2021-08-08T04:28:03,42.805,6.029,0.043,-0.03,0.014,104.0,101.0,102.0,13.4,1505.2,328.1,-0.8,1.8,2470.608,13.28,0.052,124.9
2021-08-08T04:31:03,42.805,6.029,0.046,-0.025,0.016,103.0,101.0,101.0,13.4,1505.2,330.2,-0.8,1.8,2470.61,13.28,0.052,118.5
2021-08-08T04:34:03,42.805,6.029,0.024,-0.029,-0.008,104.0,103.0,100.0,13.3,1505.2,328.6,-0.7,1.8,2470.606,13.28,0.037,140.4
2021-08-08T04:37:03,42.805,6.029,0.034,-0.031,-0.012,103.0,102.0,101.0,13.4,1505.2,324.9,-0.8,1.8,2470.591,13.28,0.046,132.4
2021-08-08T04:40:03,42.805,6.029,0.034,-0.04,-0.011,103.0,102.0,101.0,13.4,1505.2,330.7,-0.7,1.8,2470.613,13.28,0.052,139.6
2021-08-08T04:43:03,42.805,6.029,0.03,-0.016,0.0,104.0,102.0,101.0,13.4,1505.2,325.9,-0.8,1.8,2470.615,13.28,0.034,118.1
2021-08-08T04:46:03,42.805,6.029,0.051,-0.024,-0.004,102.0,102.0,101.0,13.4,1505.2,329.0,-0.7,1.8,2470.613,13.28,0.056,115.2
2021-08-08T04:49:03,42.805,6.029,0.034,-0.03,-0.022,102.0,102.0,101.0,13.3,1505.2,327.8,-0.8,1.8,2470.602,13.28,0.045,131.4
2021-08-08T04:52:03,42.805,6.029,0.018,-0.05,-0.037,101.0,102.0,102.0,13.3,1505.2,328.6,-0.8,1.9,2470.604,13.28,0.053,160.2
2021-08-08T04:55:03,42.805,6.029,0.031,-0.025,0.002,103.0,102.0,102.0,13.4,1505.2,327.3,-0.8,1.8,2470.586,13.28,0.039,128.9
2021-08-08T04:58:03,42.805,6.029,0.01,-0.02,-0.027,103.0,101.0,101.0,13.4,1505.2,329.1,-0.8,1.8,2470.622,13.28,0.022,153.4
2021-08-08T05:04:03,42.805,6.029,0.051,-0.026,-0.039,101.0,103.0,101.0,13.3,1505.2,325.4,-0.7,1.8,2470.669,13.28,0.057,117.0
2021-08-08T05:07:03,42.805,6.029,0.052,-0.002,-0.006,103.0,102.0,101.0,13.3,1505.2,330.4,-0.7,1.8,2470.643,13.28,0.052,92.2
2021-08-08T05:10:03,42.805,6.029,0.006,-0.006,0.009,103.0,101.0,101.0,13.4,1505.2,328.9,-0.7,1.8,2470.618,13.28,0.008,135.0
2021-08-08T05:13:03,42.805,6.029,0.015,-0.036,0.006,102.0,102.0,101.0,13.4,1505.2,327.8,-0.8,1.8,2470.632,13.28,0.039,157.4
2021-08-08T05:16:03,42.805,6.029,0.056,-0.019,-0.011,103.0,103.0,101.0,13.4,1505.2,329.1,-0.8,1.8,2470.65,13.28,0.059,108.7
2021-08-08T05:19:03,42.805,6.029,0.021,-0.008,0.018,102.0,103.0,101.0,13.3,1505.2,326.7,-0.8,1.8,2470.635,13.28,0.022,110.9
2021-08-08T05:22:03,42.805,6.029,0.024,-0.033,-0.006,103.0,102.0,100.0,13.4,1505.2,325.6,-0.7,1.8,2470.611,13.28,0.04,144.0
2021-08-08T05:25:03,42.805,6.029,0.036,-0.023,0.002,102.0,102.0,102.0,13.4,1505.2,330.1,-0.7,1.8,2470.645,13.28,0.042,122.6
2021-08-08T05:28:03,42.805,6.029,0.035,-0.025,-0.013,102.0,101.0,102.0,13.4,1505.2,326.8,-0.7,1.8,2470.642,13.28,0.043,125.5
2021-08-08T05:31:03,42.805,6.029,0.05,-0.05,-0.003,103.0,102.0,101.0,13.4,1505.2,325.3,-0.8,1.8,2470.607,13.28,0.07,135.0
2021-08-08T05:34:03,42.805,6.029,0.007,-0.031,-0.029,102.0,102.0,101.0,13.3,1505.2,328.6,-0.7,1.8,2470.651,13.28,0.031,167.3
2021-08-08T05:37:03,42.805,6.029,0.046,-0.011,0.01,103.0,103.0,101.0,13.4,1505.2,328.4,-0.8,1.8,2470.612,13.28,0.047,103.4
2021-08-08T05:40:03,42.805,6.029,0.026,-0.009,0.002,102.0,102.0,101.0,13.4,1505.2,328.7,-0.7,1.8,2470.653,13.28,0.027,109.1
2021-08-08T05:43:03,42.805,6.029,0.021,-0.044,-0.016,101.0,102.0,102.0,13.4,1505.2,328.8,-0.8,1.8,2470.63,13.28,0.048,154.5
2021-08-08T05:46:03,42.805,6.029,0.023,-0.032,-0.015,102.0,103.0,101.0,13.4,1505.2,327.9,-0.8,1.8,2470.628,13.28,0.039,144.3
2021-08-08T05:49:03,42.805,6.029,0.049,-0.022,0.009,102.0,102.0,101.0,13.3,1505.2,325.0,-0.8,1.8,2470.602,13.28,0.053,114.2
2021-08-08T05:52:03,42.805,6.029,0.04,-0.012,-0.014,103.0,102.0,101.0,13.3,1505.2,328.1,-0.8,1.8,2470.661,13.28,0.041,106.7
2021-08-08T05:55:03,42.805,6.029,0.05,-0.017,0.012,102.0,102.0,101.0,13.4,1505.2,327.2,-0.7,1.8,2470.633,13.28,0.052,108.8
2021-08-08T05:58:03,42.805,6.029,0.023,-0.023,-0.018,102.0,102.0,101.0,13.4,1505.2,330.1,-0.7,1.8,2470.616,13.28,0.032,135.0
2021-08-08T06:04:04,42.805,6.029,0.037,-0.02,-0.011,102.0,103.0,101.0,13.3,1505.2,328.8,-0.8,1.8,2470.667,13.28,0.042,118.4
2021-08-08T06:07:03,42.805,6.029,0.03,-0.028,-0.012,103.0,101.0,101.0,13.4,1505.2,329.3,-0.8,1.8,2470.664,13.28,0.041,133.0
2021-08-08T06:10:03,42.805,6.029,0.032,-0.022,0.013,102.0,102.0,101.0,13.4,1505.2,328.5,-0.8,1.8,2470.655,13.28,0.038,124.5
2021-08-08T06:13:03,42.805,6.029,0.057,-0.024,0.01,102.0,102.0,101.0,13.3,1505.2,326.5,-0.7,1.9,2470.683,13.28,0.061,112.8
2021-08-08T06:16:03,42.805,6.029,0.029,-0.012,0.006,103.0,101.0,101.0,13.4,1505.2,330.1,-0.7,1.8,2470.6,13.28,0.031,112.5
2021-08-08T06:19:03,42.805,6.029,0.037,-0.026,-0.025,103.0,101.0,101.0,13.4,1505.2,326.4,-0.7,1.8,2470.657,13.28,0.045,125.1
2021-08-08T06:22:03,42.805,6.029,0.03,-0.026,-0.005,102.0,103.0,101.0,13.4,1505.2,326.2,-0.7,1.9,2470.681,13.28,0.039,130.9
2021-08-08T06:25:03,42.805,6.029,0.038,-0.033,-0.001,104.0,101.0,102.0,13.4,1505.2,326.9,-0.7,1.8,2470.641,13.28,0.05,131.0
2021-08-08T06:28:03,42.805,6.029,0.017,-0.02,-0.012,103.0,101.0,100.0,13.4,1505.2,329.3,-0.8,1.8,2470.646,13.28,0.026,139.6
2021-08-08T06:31:03,42.805,6.029,0.025,0.006,-0.013,103.0,103.0,101.0,13.3,1505.2,325.0,-0.8,1.8,2470.651,13.28,0.025,76.5
2021-08-08T06:34:03,42.805,6.029,0.021,-0.013,-0.031,102.0,102.0,101.0,13.4,1505.2,328.6,-0.8,1.8,2470.694,13.28,0.024,121.8
2021-08-08T06:37:03,42.805,6.029,0.026,-0.004,-0.019,104.0,101.0,102.0,13.4,1505.2,328.1,-0.7,1.8,2470.666,13.28,0.026,98.7
2021-08-08T06:40:03,42.805,6.029,0.045,-0.043,-0.007,104.0,101.0,101.0,13.4,1505.2,328.9,-0.8,1.8,2470.632,13.28,0.062,133.7
2021-08-08T06:43:03,42.805,6.029,0.037,-0.021,0.021,102.0,102.0,101.0,13.4,1505.2,327.9,-0.7,1.8,2470.61,13.28,0.042,119.6
2021-08-08T06:46:03,42.805,6.029,0.031,0.003,0.006,103.0,103.0,101.0,13.4,1505.2,326.9,-0.7,1.8,2470.681,13.28,0.031,84.5
2021-08-08T06:49:03,42.805,6.029,0.019,-0.008,-0.004,102.0,103.0,101.0,13.4,1505.2,325.3,-0.8,1.8,2470.644,13.28,0.02,112.8
2021-08-08T06:52:03,42.805,6.029,0.004,0.006,-0.02,102.0,101.0,102.0,13.4,1505.2,330.2,-0.7,1.8,2470.676,13.28,0.007,33.7
2021-08-08T06:55:03,42.805,6.029,0.043,-0.013,0.007,102.0,104.0,101.0,13.4,1505.2,328.9,-0.7,1.8,2470.664,13.28,0.044,106.8
2021-08-08T06:58:03,42.805,6.029,0.045,-0.023,-0.024,103.0,102.0,101.0,13.4,1505.2,328.1,-0.7,1.8,2470.633,13.28,0.05,117.1
2021-08-08T07:04:03,42.805,6.029,0.035,-0.023,-0.011,101.0,102.0,102.0,13.4,1505.2,330.5,-0.7,1.8,2470.7,13.28,0.041,123.3
2021-08-08T07:07:03,42.805,6.029,0.042,-0.015,0.0,103.0,104.0,101.0,13.4,1505.2,328.2,-0.7,1.8,2470.693,13.28,0.044,109.6
2021-08-08T07:10:03,42.805,6.029,0.037,-0.034,-0.022,103.0,102.0,101.0,13.4,1505.2,328.9,-0.8,1.8,2470.673,13.28,0.05,132.6
2021-08-08T07:13:03,42.805,6.029,0.025,-0.038,-0.004,103.0,103.0,101.0,13.4,1505.2,325.4,-0.7,1.8,2470.678,13.28,0.045,146.7
2021-08-08T07:16:03,42.805,6.029,0.018,-0.017,0.0,103.0,102.0,102.0,13.3,1505.2,330.9,-0.7,1.8,2470.693,13.28,0.024,133.4
2021-08-08T07:19:03,42.805,6.029,0.043,-0.02,-0.022,103.0,102.0,101.0,13.3,1505.2,328.7,-0.7,1.8,2470.697,13.28,0.047,114.9
2021-08-08T07:22:03,42.805,6.029,0.042,-0.016,0.011,102.0,103.0,101.0,13.3,1505.2,328.3,-0.8,1.8,2470.688,13.28,0.044,110.9
2021-08-08T07:25:03,42.805,6.029,0.019,-0.014,-0.024,102.0,102.0,101.0,13.3,1505.2,330.5,-0.8,1.8,2470.617,13.28,0.023,126.4
2021-08-08T07:28:03,42.805,6.029,0.021,-0.016,-0.038,103.0,103.0,101.0,13.4,1505.2,329.9,-0.8,1.8,2470.703,13.28,0.026,127.3
2021-08-08T07:31:03,42.805,6.029,0.033,-0.027,-0.035,102.0,103.0,101.0,13.3,1505.2,326.4,-0.7,1.8,2470.674,13.28,0.042,129.3
2021-08-08T07:34:03,42.805,6.029,0.036,-0.037,0.006,102.0,102.0,101.0,13.4,1505.2,329.2,-0.7,1.8,2470.676,13.28,0.051,135.8
2021-08-08T07:37:03,42.805,6.029,0.027,-0.026,-0.036,103.0,103.0,101.0,13.3,1505.2,326.4,-0.7,1.8,2470.646,13.28,0.037,133.9
2021-08-08T07:40:03,42.805,6.029,0.043,-0.036,-0.007,101.0,102.0,101.0,13.4,1505.2,326.1,-0.7,1.8,2470.648,13.28,0.056,129.9
2021-08-08T07:43:03,42.805,6.029,0.053,-0.037,-0.024,103.0,102.0,101.0,13.4,1505.2,330.7,-0.8,1.8,2470.642,13.28,0.064,124.9
2021-08-08T07:46:03,42.805,6.029,0.041,-0.013,-0.006,103.0,103.0,101.0,13.4,1505.2,327.5,-0.7,1.8,2470.652,13.28,0.043,107.6
2021-08-08T07:49:03,42.805,6.029,0.051,-0.038,0.002,102.0,101.0,101.0,13.4,1505.2,330.3,-0.7,1.8,2470.651,13.28,0.063,126.7
2021-08-08T07:52:03,42.805,6.029,0.027,-0.033,-0.008,103.0,102.0,101.0,13.4,1505.2,325.9,-0.8,1.8,2470.679,13.28,0.042,140.7
2021-08-08T07:55:03,42.805,6.029,0.033,-0.01,0.011,102.0,103.0,101.0,13.4,1505.2,328.7,-0.7,1.8,2470.654,13.28,0.034,106.9
2021-08-08T07:58:03,42.805,6.029,0.03,-0.02,-0.008,103.0,102.0,102.0,13.3,1505.2,329.1,-0.7,1.8,2470.627,13.28,0.036,123.7
2021-08-08T08:04:03,42.805,6.029,0.033,-0.025,-0.037,103.0,102.0,101.0,13.4,1505.2,326.7,-0.8,1.9,2470.656,13.28,0.041,127.1
2021-08-08T08:07:03,42.805,6.029,0.052,-0.009,-0.01,102.0,102.0,101.0,13.4,1505.2,325.6,-0.8,1.8,2470.696,13.28,0.052,99.8
2021-08-08T08:10:03,42.805,6.029,0.053,-0.045,-0.022,102.0,102.0,101.0,13.4,1505.2,327.2,-0.7,1.8,2470.646,13.28,0.069,130.3
2021-08-08T08:13:03,42.805,6.029,0.053,-0.02,0.007,102.0,102.0,101.0,13.4,1505.2,328.8,-0.8,1.8,2470.629,13.28,0.056,110.7
2021-08-08T08:16:03,42.805,6.029,0.012,-0.023,0.0,103.0,103.0,101.0,13.4,1505.2,327.1,-0.8,1.8,2470.678,13.28,0.025,152.4
2021-08-08T08:19:03,42.805,6.029,0.046,-0.012,-0.007,102.0,103.0,101.0,13.4,1505.2,326.4,-0.7,1.8,2470.654,13.28,0.047,104.6
2021-08-08T08:22:03,42.805,6.029,0.051,-0.021,-0.002,104.0,104.0,100.0,13.4,1505.2,327.3,-0.7,1.8,2470.604,13.28,0.055,112.4
2021-08-08T08:25:03,42.805,6.029,0.062,-0.011,0.018,104.0,102.0,101.0,13.4,1505.2,327.7,-0.7,1.8,2470.611,13.28,0.062,100.1
2021-08-08T08:28:03,42.805,6.029,0.031,-0.03,-0.007,101.0,103.0,102.0,13.4,1505.2,327.5,-0.8,1.8,2470.643,13.28,0.043,134.1
2021-08-08T08:31:03,42.805,6.029,0.045,-0.021,0.008,103.0,102.0,101.0,13.4,1505.2,327.6,-0.8,1.8,2470.637,13.28,0.049,115.0
2021-08-08T08:34:03,42.805,6.029,0.029,-0.026,-0.008,102.0,102.0,100.0,13.3,1505.2,328.0,-0.8,1.8,2470.598,13.28,0.038,131.9
2021-08-08T08:37:03,42.805,6.029,0.031,-0.038,0.001,101.0,102.0,101.0,13.4,1505.2,328.9,-0.8,1.8,2470.623,13.28,0.049,140.8
2021-08-08T08:40:03,42.805,6.029,0.026,-0.021,-0.009,103.0,102.0,101.0,13.4,1505.2,327.1,-0.7,1.9,2470.589,13.28,0.033,128.9
2021-08-08T08:43:03,42.805,6.029,0.02,-0.032,-0.032,103.0,102.0,101.0,13.4,1505.2,330.8,-0.8,1.8,2470.601,13.28,0.037,148.0
2021-08-08T08:46:03,42.805,6.029,0.015,-0.034,-0.035,102.0,104.0,99.0,13.4,1505.2,327.2,-0.8,1.8,2470.612,13.28,0.037,156.2
2021-08-08T08:49:03,42.805,6.029,0.003,-0.034,-0.011,103.0,102.0,100.0,13.4,1505.2,327.1,-0.7,1.8,2470.614,13.28,0.034,175.0
2021-08-08T08:52:03,42.805,6.029,0.038,-0.011,-0.025,101.0,103.0,101.0,13.4,1505.2,328.8,-0.7,1.8,2470.631,13.28,0.039,106.1
2021-08-08T08:55:03,42.805,6.029,0.01,-0.026,-0.011,102.0,103.0,101.0,13.4,1505.2,326.8,-0.8,1.8,2470.641,13.28,0.027,159.0
2021-08-08T08:58:03,42.805,6.029,0.018,-0.026,0.011,102.0,102.0,102.0,13.4,1505.2,330.9,-0.7,1.8,2470.616,13.28,0.031,145.3
2021-08-08T09:04:03,42.805,6.029,0.045,-0.034,-0.012,102.0,103.0,102.0,13.4,1505.2,326.8,-0.7,1.8,2470.651,13.28,0.056,127.1
2021-08-08T09:07:03,42.805,6.029,0.024,-0.018,0.033,103.0,103.0,100.0,13.4,1505.2,325.2,-0.7,1.8,2470.66,13.28,0.03,126.9
2021-08-08T09:10:03,42.805,6.029,0.045,-0.009,-0.003,102.0,103.0,101.0,13.3,1505.2,329.6,-0.8,1.8,2470.595,13.28,0.045,101.3
2021-08-08T09:13:03,42.805,6.029,0.044,-0.019,0.02,103.0,102.0,101.0,13.4,1505.2,330.5,-0.7,1.8,2470.643,13.28,0.047,113.4
2021-08-08T09:16:03,42.805,6.029,0.04,-0.032,-0.027,103.0,102.0,101.0,13.4,1505.2,330.1,-0.7,1.8,2470.613,13.28,0.051,128.7
2021-08-08T09:19:03,42.805,6.029,0.013,-0.029,0.007,101.0,103.0,100.0,13.4,1505.2,328.7,-0.8,1.8,2470.655,13.28,0.031,155.9
2021-08-08T09:22:03,42.805,6.029,0.035,-0.016,-0.003,102.0,101.0,102.0,13.3,1505.2,329.8,-0.7,1.8,2470.593,13.28,0.038,114.6
2021-08-08T09:25:03,42.805,6.029,0.037,-0.029,-0.01,101.0,102.0,102.0,13.4,1505.2,327.4,-0.8,1.8,2470.625,13.28,0.047,128.1
2021-08-08T09:28:03,42.805,6.029,0.026,-0.036,-0.019,102.0,101.0,102.0,13.4,1505.2,325.7,-0.8,1.8,2470.589,13.28,0.044,144.2
2021-08-08T09:31:03,42.805,6.029,0.049,-0.018,0.004,102.0,101.0,101.0,13.4,1505.2,325.4,-0.7,1.8,2470.594,13.28,0.052,110.2
2021-08-08T09:34:03,42.805,6.029,0.03,-0.008,-0.024,103.0,101.0,100.0,13.4,1505.2,325.8,-0.7,1.8,2470.574,13.28,0.031,104.9
2021-08-08T09:37:03,42.805,6.029,0.026,-0.012,-0.034,102.0,102.0,101.0,13.4,1505.2,325.1,-0.8,1.8,2470.591,13.28,0.028,114.8
2021-08-08T09:40:03,42.805,6.029,0.036,-0.031,-0.021,102.0,102.0,100.0,13.4,1505.2,327.8,-0.7,1.8,2470.576,13.28,0.047,130.7
2021-08-08T09:43:03,42.805,6.029,0.04,-0.04,-0.004,102.0,102.0,102.0,13.3,1505.2,330.0,-0.8,1.8,2470.569,13.28,0.056,135.0
2021-08-08T09:46:03,42.805,6.029,0.031,-0.005,0.006,103.0,101.0,102.0,13.4,1505.2,328.7,-0.7,1.8,2470.53,13.28,0.031,99.2
2021-08-08T09:49:03,42.805,6.029,0.021,-0.01,-0.034,102.0,102.0,101.0,13.4,1505.2,327.7,-0.8,1.8,2470.586,13.28,0.023,115.5
2021-08-08T09:52:03,42.805,6.029,0.019,-0.023,0.007,102.0,102.0,101.0,13.4,1505.2,330.7,-0.8,1.8,2470.584,13.28,0.029,140.4
2021-08-08T09:55:03,42.805,6.029,0.011,-0.026,-0.007,103.0,102.0,101.0,13.4,1505.2,327.2,-0.7,1.8,2470.585,13.28,0.028,157.1